Regional Weather Roundup
Issued by NWS Little Rock, AR

Home | Current Version | Previous Version | Graphics & Text | Print | Product List | Glossary On
Versions: 1 2 3 4 5 6 7 8 9 10 11 12 13 14 15 16 17 18 19 20 21 22 23 24 25 26 27 28 29 30 31 32 33 34 35 36 37 38 39 40 41 42 43 44 45 46 47 48 49 50
000
ASUS44 KLZK 281405
RWRLZK

WEATHER ROUNDUP FOR ARKANSAS
NATIONAL WEATHER SERVICE LITTLE ROCK AR
900 AM CDT SAT MAR 28 2015

NOTE: "FAIR" INDICATES FEW OR NO CLOUDS BELOW 12,000 FEET WITH NO
SIGNIFICANT WEATHER AND/OR OBSTRUCTIONS TO VISIBILITY.

ARZ001-003-010-029-281500-
NORTHWEST ARKANSAS

CITY           SKY/WX    TMP DP  RH WIND       PRES   REMARKS
FAYETTEVILLE   LGT RAIN  40  37  89 E3        30.13S
FORT SMITH     CLOUDY    46  35  65 E7        30.16F
HARRISON       CLOUDY    39  31  72 SE14      30.16S
BENTONVILLE    CLOUDY    43  30  61 S8        30.11F
ROGERS         LGT RAIN  41  33  73 SE13      30.10F
SILOAM SPGS    CLOUDY    41  32  70 E7        30.14R
HIGHFILL       LGT RAIN  42  35  76 S10       30.11F
SPRINGDALE     CLOUDY    41  34  75 SE6       30.15
$$

ARZ004-005-016-281500-
NORTH CENTRAL ARKANSAS

CITY           SKY/WX    TMP DP  RH WIND       PRES   REMARKS
BATESVILLE     CLOUDY    39  28  65 SE9       30.26S
FLIPPIN        CLOUDY    39  28  65 E8        30.20F
MTN HOME       CLOUDY    37  27  67 SE10      30.20R
$$

ARZ040-041-281500-
WEST CENTRAL ARKANSAS

CITY           SKY/WX    TMP DP  RH WIND       PRES   REMARKS
MENA           CLOUDY    45  36  70 CALM      30.19R
MOUNT IDA      CLOUDY    45  36  70 CALM      30.18R
$$

ARZ009-017-025-026-028-281500-
NORTHEAST ARKANSAS

CITY           SKY/WX    TMP DP  RH WIND       PRES   REMARKS
CORNING          N/A     37  27  65 S5        30.31R
JONESBORO      CLOUDY    37  25  61 VRB3      30.29R
NEWPORT        LGT RAIN  39  28  65 E13       30.30R
BLYTHEVILLE    CLOUDY    38  25  59 W3        30.30R
$$

ARZ022-023-033-042-044-281500-
CENTRAL ARKANSAS

CITY           SKY/WX    TMP DP  RH WIND       PRES   REMARKS
LITTLE ROCK    LGT RAIN  43  36  76 E13       30.24R
N LITTLE ROCK  CLOUDY    41  38  90 SE10G16   30.24R
JACKSONVILLE   CLOUDY    42  37  81 E8        30.24R
SEARCY         CLOUDY    41  30  65 SE6       30.28R
HOT SPRINGS    PTSUNNY   45  36  70 E7        30.20R
RUSSELLVILLE   LGT RAIN  42  37  82 SE5       30.21S
CLINTON        PTSUNNY   41  32  70 E6        30.25S
$$

ARZ036-281500-
EAST ARKANSAS

CITY           SKY/WX    TMP DP  RH WIND       PRES   REMARKS
WEST MEMPHIS   CLOUDY    39  21  48 E5        30.29R
$$

ARZ050-053-066-070-073-281500-
SOUTHWEST ARKANSAS

CITY           SKY/WX    TMP DP  RH WIND       PRES   REMARKS
ARKADELPHIA    FAIR      45  42  89 CALM      30.23R
CAMDEN         MIX PCPN  43  39  87 CALM      30.22R
TEXARKANA      MOSUNNY   48  39  71 SE6       30.18R
EL DORADO      CLOUDY    45  40  82 SE5       30.20S
DE QUEEN       PTSUNNY   45  38  76 NE5       30.17R
$$

ARZ056-057-069-281500-
SOUTHEAST ARKANSAS

CITY           SKY/WX    TMP DP  RH WIND       PRES   REMARKS
PINE BLUFF     PTSUNNY   43  37  79 E13       30.26R
STUTTGART      PTSUNNY   43  27  52 E15       30.26S
MONTICELLO     PTSUNNY   43  38  82 E5        30.24R

$$




USA.gov is the U.S. government's official web portal to all federal, state and local government web resources and services.